Location: Pasadena, ca
(34.1243°N, 118.1037°W)
Time: 02:13:25
(UTC-07:00)

Tiangong 2 - Pass Details

Date: 07 October 2017
Orbit: 388 x 392 km, 42.8° (Epoch: 18 October)

Event Time Altitude Azimuth Distance (km) Brightness Sun altitude
Exits shadow 05:17:43 30° 166° (SSE) 723 2.4 -20.2°
Maximum altitude 05:18:14 32° 144° (SE) 688 2.5 -20.1°
Drops below altitude 10° 05:21:09 10° 79° (E) 1,420 5.2 -19.5°
Sets 05:23:21 0° 69° (ENE) 2,279 6.4 -19.1°
